Overview Statistics Trail Chart Weather Telemetry Raw packets
 

This is the latest recevied weather packets stored in our database for station/object Seibranz. If no packets are shown the sender has not sent any weather packets the latest 10 day(s).

<< 9 10 11 12 13 14 15 >>
Time Temp. Humidity Pressure Rain* Wind** Luminosity Snow
1788084130 21.67° C 68% 1015.5 hPa 0 mm - - -
1788082330 21.67° C 69% 1015.7 hPa 0 mm - - -
1788080531 21.11° C 72% 1015.8 hPa 0 mm - - -
1788078729 20° C 75% 1015.9 hPa 0 mm - - -
1788076930 19.44° C 75% 1016 hPa 0 mm - - -
1788075130 18.89° C 80% 1016 hPa 0 mm - - -
1788073329 17.78° C 81% 1016 hPa 0 mm - - -
1788071530 17.22° C 84% 1015.9 hPa 0 mm - - -
1788069730 16.67° C 84% 1015.9 hPa 0 mm - - -
1788067930 15.56° C 86% 1015.9 hPa 0 mm - - -
1788066130 15.56° C 85% 1015.8 hPa 0 mm - - -
1788064329 15.56° C 85% 1015.7 hPa 0 mm - - -
1788062529 15.56° C 85% 1015.6 hPa 0 mm - - -
1788060729 15.56° C 85% 1015.6 hPa 0 mm - - -
1788058929 15.56° C 85% 1015.6 hPa 0 mm - - -
1788057129 15.56° C 84% 1015.7 hPa 0 mm - - -
1788055329 15.56° C 84% 1015.8 hPa 0 mm - - -
1788053529 15.56° C 84% 1016 hPa 0 mm - - -
1788051729 15° C 85% 1015.8 hPa 0 mm - - -
1788049931 15.56° C 86% 1016 hPa 0 mm - - -
1788048131 14.44° C 86% 1015.9 hPa 0 mm - - -
1788046331 14.44° C 85% 1016 hPa 0 mm - - -
1788044531 14.44° C 85% 1015.7 hPa 0 mm - - -
1788042731 14.44° C 84% 1015.6 hPa 0 mm - - -
1788039131 14.44° C 85% 1015.8 hPa 0.25 mm - - -

* Rain since midnight (hover to see other rain measurements)
** Current wind speed in m/s (hover to see current wind gust speed)